TimeCST,TemperatureF,Dew PointF,Humidity,Sea Level PressureIn,VisibilityMPH,Wind Direction,Wind SpeedMPH,Gust SpeedMPH,PrecipitationIn,Events,Conditions,WindDirDegrees,DateUTC
12:53 AM,28.0,25.0,88,30.02,10.0,South,8.1,-,N/A,,Overcast,180,2012-12-08 06:53:00
1:53 AM,27.0,25.0,92,30.00,10.0,South,10.4,-,N/A,,Overcast,170,2012-12-08 07:53:00
2:53 AM,27.0,24.1,89,29.99,10.0,South,15.0,-,N/A,,Overcast,170,2012-12-08 08:53:00
3:20 AM,28.4,24.8,86,29.92,10.0,South,15.0,-,N/A,,Overcast,180,2012-12-08 09:20:00
3:53 AM,28.0,24.1,85,29.97,10.0,South,11.5,-,N/A,,Overcast,170,2012-12-08 09:53:00
4:40 AM,26.6,23.0,86,29.88,10.0,SSE,8.1,-,N/A,,Mostly Cloudy,150,2012-12-08 10:40:00
4:50 AM,26.6,23.0,86,29.87,10.0,SSE,9.2,-,N/A,,Partly Cloudy,150,2012-12-08 10:50:00
5:53 AM,27.0,23.0,85,29.92,10.0,SSE,12.7,-,N/A,,Clear,150,2012-12-08 11:53:00
6:53 AM,27.0,24.1,89,29.89,10.0,SSE,12.7,-,N/A,,Scattered Clouds,150,2012-12-08 12:53:00
7:53 AM,28.0,24.1,85,29.88,10.0,South,19.6,25.3,N/A,,Overcast,170,2012-12-08 13:53:00
8:53 AM,28.9,24.1,82,29.86,10.0,SSE,19.6,25.3,N/A,,Overcast,160,2012-12-08 14:53:00
9:53 AM,30.0,25.0,82,29.85,10.0,SSE,13.8,-,N/A,,Overcast,160,2012-12-08 15:53:00
10:35 AM,30.2,28.4,93,29.77,2.0,SSE,17.3,27.6,0.00,Snow,Light Snow,160,2012-12-08 16:35:00
10:40 AM,30.2,28.4,93,29.77,0.8,SSE,18.4,25.3,0.00,Snow,Light Snow,150,2012-12-08 16:40:00
10:53 AM,30.0,27.0,88,29.83,2.0,SSE,21.9,27.6,0.00,Snow,Light Snow,150,2012-12-08 16:53:00
11:01 AM,30.2,26.6,86,29.76,3.0,SSE,21.9,-,0.00,Snow,Light Snow,150,2012-12-08 17:01:00
11:08 AM,30.2,26.6,86,29.75,2.0,SSE,24.2,31.1,0.00,Snow,Light Snow,150,2012-12-08 17:08:00
11:15 AM,30.2,26.6,86,29.74,1.0,SSE,26.5,33.4,0.00,Snow,Light Snow,150,2012-12-08 17:15:00
11:24 AM,30.2,28.4,93,29.72,0.8,SE,24.2,32.2,0.00,Snow,Light Snow,140,2012-12-08 17:24:00
11:36 AM,30.2,28.4,93,29.71,2.5,SE,23.0,29.9,0.00,Snow,Light Snow,140,2012-12-08 17:36:00
11:43 AM,30.2,28.4,93,29.71,9.0,SSE,20.7,-,0.00,,Overcast,150,2012-12-08 17:43:00
11:53 AM,32.0,27.0,82,29.77,10.0,SSE,20.7,29.9,0.00,,Overcast,150,2012-12-08 17:53:00
12:53 PM,33.1,28.9,85,29.74,3.0,South,24.2,34.5,0.00,Snow,Light Snow,190,2012-12-08 18:53:00
1:00 PM,33.8,28.4,81,29.68,2.0,South,27.6,33.4,0.00,Snow,Light Snow,180,2012-12-08 19:00:00
1:06 PM,33.8,28.4,81,29.68,1.5,South,25.3,33.4,0.00,Snow,Light Snow,170,2012-12-08 19:06:00
1:43 PM,33.8,30.2,87,29.66,2.5,South,24.2,29.9,0.00,Snow,Light Snow,180,2012-12-08 19:43:00
1:50 PM,33.8,30.2,87,29.66,7.0,South,18.4,29.9,0.00,,Overcast,180,2012-12-08 19:50:00
1:53 PM,34.0,30.0,85,29.72,4.0,South,24.2,31.1,0.00,Snow,Light Snow,170,2012-12-08 19:53:00
1:56 PM,33.8,30.2,87,29.66,2.0,South,23.0,31.1,0.00,Snow,Light Snow,170,2012-12-08 19:56:00
2:03 PM,33.8,30.2,87,29.66,1.5,South,23.0,29.9,0.00,Snow,Light Snow,180,2012-12-08 20:03:00
2:07 PM,33.8,30.2,87,29.66,2.5,South,24.2,-,0.00,Snow,Light Snow,170,2012-12-08 20:07:00
2:23 PM,33.8,30.2,87,29.65,1.8,South,21.9,-,0.00,Snow,Light Snow,170,2012-12-08 20:23:00
2:33 PM,33.8,30.2,87,29.65,0.5,South,23.0,32.2,0.00,Fog-Snow,Snow,180,2012-12-08 20:33:00
2:40 PM,33.8,30.2,87,29.64,1.0,South,24.2,29.9,0.00,Snow,Light Snow,170,2012-12-08 20:40:00
2:53 PM,34.0,30.0,85,29.71,1.8,SSE,18.4,-,0.00,Snow,Light Snow,160,2012-12-08 20:53:00
3:09 PM,33.8,30.2,87,29.65,0.8,South,26.5,34.5,0.00,Snow,Light Snow,170,2012-12-08 21:09:00
3:19 PM,33.8,30.2,87,29.65,0.5,South,18.4,-,0.00,Fog-Snow,Snow,170,2012-12-08 21:19:00
3:53 PM,34.0,30.0,85,29.69,0.8,SSE,19.6,25.3,0.00,Snow,Light Snow,150,2012-12-08 21:53:00
4:01 PM,33.8,30.2,87,29.65,1.8,SSE,13.8,25.3,0.00,Snow,Light Snow,150,2012-12-08 22:01:00
4:03 PM,33.8,30.2,87,29.65,2.5,SSE,15.0,-,0.00,Snow,Light Snow,150,2012-12-08 22:03:00
4:06 PM,33.8,30.2,87,29.64,4.0,SSE,13.8,21.9,0.00,Snow,Light Snow,150,2012-12-08 22:06:00
4:19 PM,35.6,30.2,81,29.64,10.0,SSE,12.7,-,0.00,,Overcast,150,2012-12-08 22:19:00
4:53 PM,35.1,32.0,89,29.69,10.0,SSE,11.5,21.9,0.00,,Overcast,160,2012-12-08 22:53:00
5:53 PM,37.0,32.0,82,29.73,10.0,SW,12.7,-,N/A,,Overcast,230,2012-12-08 23:53:00
6:53 PM,34.0,27.0,75,29.75,10.0,West,6.9,-,N/A,,Clear,280,2012-12-09 00:53:00
7:53 PM,28.9,24.1,82,29.78,10.0,West,9.2,-,N/A,,Clear,270,2012-12-09 01:53:00
8:13 PM,28.4,24.8,86,29.72,10.0,West,10.4,-,N/A,,Mostly Cloudy,280,2012-12-09 02:13:00
8:53 PM,30.9,27.0,85,29.80,10.0,WNW,13.8,-,N/A,,Overcast,290,2012-12-09 02:53:00
9:53 PM,30.0,27.0,88,29.80,10.0,West,17.3,-,N/A,,Overcast,280,2012-12-09 03:53:00
10:53 PM,28.9,26.1,89,29.83,10.0,WNW,20.7,-,N/A,,Overcast,290,2012-12-09 04:53:00
11:46 PM,28.4,26.6,93,29.78,4.0,WNW,26.5,32.2,N/A,,Overcast,290,2012-12-09 05:46:00
11:53 PM,28.0,25.0,88,29.85,5.0,West,28.8,36.8,N/A,,Overcast,280,2012-12-09 05:53:00